KC8MCA Weather Reports


Display with metric or nautical units.
time (UTC)temp
F
wind
direction
speed
MPH
gust
MPH
rain 1hr
in
rain 24hr
in
rain mn
in
humidity
%
barometer
mb
20260506133832 49 291 2.0 8.0 0.00 0.91 0.17 84 1009.5
20260506133314 49 313 2.0 9.0 0.00 0.91 0.17 84 1009.5
20260506132843 49 291 2.0 9.0 0.00 0.91 0.17 84 1009.4
20260506132325 49 263 2.0 6.0 0.00 0.91 0.17 84 1009.3
20260506131834 49 269 3.0 7.0 0.00 0.91 0.17 84 1009.3
20260506131314 49 298 3.0 7.0 0.00 0.91 0.17 84 1009.2
20260506130817 49 290 3.0 6.0 0.01 0.91 0.17 84 1009.1
20260506130326 49 281 2.0 6.0 0.01 0.91 0.17 84 1008.9
20260506125828 48 273 2.0 5.0 0.01 0.91 0.17 84 1009.0
20260506125331 48 304 1.0 5.0 0.01 0.91 0.17 84 1008.8
20260506124814 48 299 1.0 7.0 0.01 0.91 0.17 83 1008.7
20260506124322 48 281 2.0 7.0 0.01 0.91 0.17 83 1008.6
20260506123825 48 288 2.0 5.0 0.01 0.91 0.17 82 1008.6
20260506123328 48 322 2.0 5.0 0.01 0.91 0.17 82 1008.7
20260506122837 47 296 1.0 4.0 0.01 0.91 0.17 81 1008.6
20260506122320 47 294 2.0 5.0 0.01 0.91 0.17 80 1008.7
20260506121842 47 317 3.0 5.0 0.01 0.91 0.17 78 1008.5
20260506121330 47 322 3.0 5.0 0.01 0.91 0.17 78 1008.4
20260506120833 47 321 2.0 5.0 0.00 0.90 0.16 78 1008.6
20260506120316 47 301 2.0 5.0 0.00 0.90 0.16 80 1008.8
20260506115824 47 312 3.0 6.0 0.00 0.90 0.16 82 1008.7
20260506115326 47 314 3.0 6.0 0.01 0.90 0.16 82 1008.7
20260506114829 47 317 3.0 5.0 0.01 0.90 0.16 83 1008.5
20260506114336 47 311 1.0 3.0 0.01 0.90 0.16 84 1008.5
20260506113819 47 304 1.0 5.0 0.01 0.90 0.16 85 1008.5
20260506113321 47 321 2.0 5.0 0.01 0.90 0.16 85 1008.3
20260506112822 47 323 2.0 5.0 0.01 0.90 0.16 86 1008.1
20260506112330 47 321 2.0 5.0 0.01 0.90 0.16 87 1007.9
20260506111852 46 320 2.0 4.0 0.01 0.90 0.16 87 1007.8
20260506111339 46 319 1.0 3.0 0.01 0.90 0.16 88 1007.8
20260506110821 46 319 2.0 4.0 0.01 0.90 0.16 88 1007.7
20260506110324 46 316 2.0 4.0 0.01 0.90 0.16 89 1007.8
20260506105833 46 315 0.0 3.0 0.02 0.90 0.16 89 1007.6
20260506105316 46 315 2.0 4.0 0.01 0.89 0.15 89 1007.3
20260506104819 46 323 0.0 3.0 0.01 0.89 0.15 89 1007.0
20260506104347 46 321 0.0 3.0 0.01 0.89 0.15 89 1007.0
20260506103828 46 321 1.0 4.0 0.01 0.89 0.15 90 1007.1
20260506103331 46 325 2.0 4.0 0.01 0.89 0.15 90 1007.2
20260506102814 46 326 1.0 8.0 0.01 0.89 0.15 90 1007.0
20260506102344 46 331 2.0 8.0 0.01 0.89 0.15 90 1007.2
20260506101826 46 338 4.0 9.0 0.01 0.89 0.15 90 1007.5
20260506101335 45 328 4.0 9.0 0.02 0.89 0.15 91 1007.7
20260506100817 45 325 4.0 8.0 0.02 0.89 0.15 91 1007.7
20260506100320 45 318 3.0 9.0 0.01 0.88 0.14 91 1007.6
20260506095827 45 326 4.0 9.0 0.01 0.88 0.14 92 1007.3
20260506095329 45 297 2.0 7.0 0.01 0.88 0.14 92 1007.0
20260506094832 45 340 3.0 4.0 0.01 0.88 0.14 92 1007.0
20260506094341 45 326 1.0 2.0 0.01 0.88 0.14 92 1007.2
20260506093844 45 327 0.0 2.0 0.01 0.88 0.14 92 1007.0
20260506093333 45 327 0.0 2.0 0.02 0.88 0.14 92 1006.9
20260506092815 45 327 0.0 2.0 0.02 0.88 0.14 92 1007.3
20260506092318 45 326 1.0 2.0 0.02 0.88 0.14 92 1007.5
20260506091821 45 327 0.0 1.0 0.02 0.88 0.14 92 1007.6
20260506091329 45 327 0.0 1.0 0.01 0.87 0.13 92 1007.7
20260506090859 45 327 0.0 1.0 0.01 0.87 0.13 92 1007.6
20260506090320 45 327 0.0 2.0 0.01 0.87 0.13 92 1007.6
20260506085823 45 327 0.0 4.0 0.02 0.87 0.13 92 1007.4
20260506085326 45 331 2.0 4.0 0.02 0.87 0.13 92 1007.5
20260506084834 45 326 1.0 3.0 0.02 0.87 0.13 92 1007.4
20260506084317 45 325 2.0 3.0 0.02 0.87 0.13 92 1007.4
20260506083820 45 327 1.0 4.0 0.02 0.87 0.13 92 1007.3
20260506083322 45 325 2.0 5.0 0.01 0.86 0.12 92 1007.1
20260506082831 45 309 3.0 5.0 0.02 0.86 0.12 92 1007.4
20260506082314 45 320 2.0 5.0 0.02 0.86 0.12 92 1007.1
20260506081817 45 283 2.0 4.0 0.02 0.86 0.12 93 1007.2
20260506081320 45 323 1.0 5.0 0.02 0.86 0.12 93 1007.2
20260506080829 45 334 3.0 6.0 0.02 0.86 0.12 93 1007.3
20260506080331 45 338 4.0 8.0 0.02 0.86 0.12 93 1007.5
20260506073319 46 319 3.0 5.0 0.03 0.85 0.11 93 1007.5
20260506072822 46 326 1.0 5.0 0.02 0.84 0.10 93 1007.4
20260506072331 46 320 3.0 4.0 0.02 0.84 0.10 93 1007.2
20260506071835 46 318 2.0 4.0 0.02 0.84 0.10 93 1007.3
20260506071316 46 313 2.0 4.0 0.02 0.84 0.10 93 1007.2
20260506070824 46 294 2.0 5.0 0.03 0.84 0.10 93 1007.2
20260506070327 46 318 2.0 5.0 0.03 0.84 0.10 93 1007.4
20260506062326 46 61 0.0 0.0 0.03 0.82 0.08 93 1007.1
20260506061828 46 60 0.0 0.0 0.03 0.82 0.08 93 1007.3
20260506061313 46 61 0.0 0.0 0.04 0.82 0.08 93 1007.4
20260506060822 46 60 0.0 0.0 0.03 0.81 0.07 93 1007.5
20260506060325 46 60 0.0 0.0 0.03 0.81 0.07 93 1007.5
20260506051329 46 61 0.0 0.0 0.03 0.78 0.04 93 1007.5
20260506050838 46 61 0.0 0.0 0.04 0.78 0.04 93 1007.6
20260506050320 46 61 0.0 1.0 0.04 0.78 0.04 93 1007.7
20260506044835 46 61 0.0 1.0 0.04 0.77 0.03 93 1007.7
20260506044339 46 61 0.0 2.0 0.04 0.77 0.03 93 1007.7
20260506043820 46 61 1.0 2.0 0.04 0.76 0.02 93 1007.6
20260506043330 46 60 0.0 0.0 0.05 0.76 0.02 93 1007.8
20260506042832 46 60 0.0 0.0 0.05 0.76 0.02 93 1007.8
20260506042315 46 60 0.0 0.0 0.04 0.75 0.01 93 1007.9
20260506041845 46 61 0.0 2.0 0.05 0.75 0.01 93 1008.0
20260506041327 46 61 0.0 2.0 0.05 0.75 0.01 93 1007.9
20260506040836 46 60 0.0 0.0 0.05 0.74 0.00 93 1008.1
20260506040319 46 60 0.0 0.0 0.05 0.74 0.74 93 1008.1
20260506035821 46 60 0.0 0.0 0.06 0.74 0.74 93 1008.2
20260506035324 46 60 0.0 0.0 0.06 0.73 0.73 93 1008.2
20260506034833 46 60 0.0 2.0 0.07 0.73 0.73 93 1008.2
20260506034316 46 60 0.0 1.0 0.06 0.72 0.72 93 1008.4
20260506033819 46 60 0.0 0.0 0.07 0.72 0.72 93 1008.6
20260506033321 46 60 0.0 1.0 0.07 0.71 0.71 93 1008.6
20260506032829 47 60 0.0 1.0 0.09 0.71 0.71 93 1008.7
20260506032332 47 60 0.0 1.0 0.09 0.71 0.71 93 1008.5
20260506031814 48 60 0.0 1.0 0.08 0.70 0.70 93 1008.3
20260506031317 48 60 0.0 1.0 0.08 0.70 0.70 93 1008.4
20260506030847 48 60 0.0 1.0 0.07 0.69 0.69 93 1008.4
20260506030335 48 60 0.0 1.0 0.07 0.68 0.68 93 1008.5
20260506025814 48 61 0.0 2.0 0.07 0.68 0.68 93 1008.5
20260506025338 48 61 1.0 2.0 0.06 0.67 0.67 93 1008.7
20260506024826 48 62 0.0 1.0 0.05 0.66 0.66 93 1008.5
20260506024329 48 62 0.0 1.0 0.05 0.65 0.65 93 1008.5
20260506023859 48 62 0.0 2.0 0.05 0.65 0.65 93 1008.5
20260506023321 48 62 1.0 2.0 0.03 0.63 0.63 93 1008.5
20260506022823 48 62 1.0 2.0 0.02 0.62 0.62 93 1008.4
20260506022326 48 65 1.0 2.0 0.03 0.62 0.62 93 1008.2
20260506021835 48 66 0.0 2.0 0.03 0.62 0.62 93 1008.2
20260506021317 48 66 0.0 0.0 0.03 0.62 0.62 93 1008.2
20260506020820 48 66 0.0 1.0 0.04 0.62 0.62 93 1008.1
20260506020329 48 66 0.0 1.0 0.03 0.61 0.61 93 1008.2
20260506015832 48 66 0.0 1.0 0.03 0.61 0.61 93 1008.1
20260506015314 48 66 0.0 1.0 0.04 0.61 0.61 93 1008.0
20260506014818 48 66 0.0 1.0 0.03 0.60 0.60 93 1008.0
20260506014326 48 66 0.0 1.0 0.03 0.60 0.60 93 1007.8
20260506013828 48 66 0.0 2.0 0.04 0.60 0.60 93 1007.9
20260506013358 48 66 0.0 2.0 0.04 0.60 0.60 93 1007.8
20260506012819 48 66 0.0 1.0 0.04 0.60 0.60 93 1007.8
20260506012343 48 66 0.0 1.0 0.03 0.59 0.59 93 1007.7
20260506011830 48 66 0.0 1.0 0.04 0.59 0.59 93 1007.6
20260506011333 48 66 0.0 0.0 0.04 0.59 0.59 93 1007.7
20260506010814 48 66 0.0 1.0 0.04 0.58 0.58 93 1007.6
20260506010323 48 66 0.0 2.0 0.04 0.58 0.58 93 1007.5
20260506005825 48 66 0.0 1.0 0.04 0.58 0.58 93 1007.5
20260506005327 48 66 0.0 1.0 0.04 0.57 0.57 93 1007.5
20260506004835 48 66 0.0 0.0 0.04 0.57 0.57 93 1007.5
20260506004339 48 66 0.0 1.0 0.05 0.57 0.57 93 1007.6
20260506003820 48 66 0.0 4.0 0.04 0.56 0.56 93 1007.7
20260506003350 48 66 1.0 4.0 0.04 0.56 0.56 93 1007.7
20260506002831 48 66 0.0 3.0 0.05 0.56 0.56 93 1007.7
20260506002314 48 66 0.0 3.0 0.04 0.55 0.55 93 1007.6
20260506001822 48 63 1.0 4.0 0.05 0.55 0.55 93 1007.5
20260506001325 48 63 1.0 4.0 0.05 0.55 0.55 93 1007.4
20260506000834 48 71 2.0 4.0 0.05 0.54 0.54 93 1007.4
20260506000316 48 77 1.0 6.0 0.05 0.54 0.54 93 1007.4
20260505235819 48 76 2.0 6.0 0.06 0.54 0.54 92 1007.3
20260505235349 48 88 2.0 6.0 0.06 0.53 0.53 93 1007.2
20260505234852 49 106 1.0 3.0 0.06 0.53 0.53 93 1007.1
20260505234313 48 75 0.0 5.0 0.06 0.52 0.52 92 1007.2
20260505233823 48 75 1.0 5.0 0.06 0.52 0.52 92 1007.2
20260505233325 49 69 1.0 4.0 0.06 0.51 0.51 92 1007.2
20260505232828 49 82 2.0 4.0 0.07 0.51 0.51 93 1007.4
20260505232337 49 68 1.0 4.0 0.07 0.51 0.51 93 1007.2
20260505231817 49 63 2.0 4.0 0.07 0.50 0.50 93 1007.3
20260505231319 49 63 2.0 4.0 0.07 0.50 0.50 92 1007.5
20260505230849 49 65 1.0 2.0 0.07 0.49 0.49 92 1007.9
20260505230358 49 65 0.0 4.0 0.08 0.49 0.49 92 1007.9
20260505225840 49 65 0.0 4.0 0.07 0.48 0.48 92 1007.7
20260505225322 49 61 0.0 4.0 0.07 0.47 0.47 92 1007.6
20260505224831 49 61 2.0 4.0 0.07 0.47 0.47 92 1007.6
20260505224313 49 36 1.0 5.0 0.07 0.46 0.46 92 1007.8
20260505223816 49 86 2.0 4.0 0.07 0.46 0.46 92 1007.5
20260505223319 49 313 2.0 4.0 0.07 0.45 0.45 92 1008.2
20260505222827 49 48 1.0 4.0 0.06 0.44 0.44 92 1007.3
20260505222329 49 51 1.0 5.0 0.07 0.44 0.44 92 1007.3
20260505221838 49 333 2.0 5.0 0.07 0.43 0.43 92 1007.4
20260505221342 49 317 2.0 4.0 0.07 0.43 0.43 92 1007.4
20260505220824 50 315 1.0 3.0 0.07 0.42 0.42 92 1007.6
20260505220333 49 312 0.0 3.0 0.07 0.41 0.41 92 1007.5
20260505215814 49 313 1.0 3.0 0.07 0.41 0.41 92 1007.3
20260505215317 49 315 1.0 3.0 0.07 0.40 0.40 92 1007.1
20260505214827 49 313 1.0 3.0 0.08 0.40 0.40 92 1007.1
20260505214328 49 319 1.0 3.0 0.08 0.39 0.39 92 1006.8
20260505213831 49 318 1.0 3.0 0.09 0.39 0.39 92 1007.1
20260505213314 49 321 2.0 5.0 0.08 0.38 0.38 92 1006.9
20260505212823 49 328 2.0 6.0 0.08 0.37 0.37 92 1006.9
20260505212326 49 325 2.0 6.0 0.09 0.37 0.37 92 1006.9
20260505211828 49 318 2.0 6.0 0.09 0.36 0.36 92 1006.9
20260505211337 49 321 2.0 6.0 0.09 0.36 0.36 92 1006.8
20260505210841 49 321 3.0 6.0 0.08 0.35 0.35 91 1006.7
20260505210323 50 333 3.0 6.0 0.08 0.34 0.34 91 1007.0
20260505205832 50 331 3.0 6.0 0.09 0.34 0.34 91 1006.8
20260505205335 51 325 3.0 4.0 0.09 0.33 0.33 91 1006.9
20260505204824 51 323 2.0 5.0 0.10 0.32 0.32 92 1006.9
20260505204326 51 323 2.0 5.0 0.10 0.31 0.31 91 1007.0
20260505203829 51 312 3.0 4.0 0.11 0.30 0.30 91 1006.9
20260505203339 51 325 3.0 4.0 0.13 0.29 0.29 91 1007.0
20260505202821 52 327 2.0 4.0 0.16 0.29 0.29 91 1007.0
20260505202323 52 317 1.0 6.0 0.16 0.28 0.28 91 1007.0
20260505201832 52 311 3.0 6.0 0.17 0.27 0.27 90 1006.8
20260505201313 53 323 4.0 6.0 0.20 0.27 0.27 90 1006.8
20260505200816 54 329 2.0 6.0 0.21 0.26 0.26 91 1006.9
20260505200319 54 329 3.0 5.0 0.22 0.26 0.26 91 1006.9
20260505195331 54 252 1.0 2.0 0.21 0.24 0.24 91 1006.9
20260505194814 54 252 1.0 2.0 0.21 0.22 0.22 91 1006.8
20260505194343 55 252 1.0 2.0 0.19 0.20 0.20 91 1006.9
20260505193826 55 251 0.0 2.0 0.18 0.18 0.18 90 1006.8
20260505193334 55 251 1.0 2.0 0.16 0.16 0.16 90 1006.9
20260505192838 55 251 0.0 2.0 0.13 0.13 0.13 90 1006.9
20260505192320 55 250 0.0 3.0 0.11 0.11 0.11 90 1006.9
20260505191828 55 250 1.0 3.0 0.09 0.09 0.09 89 1006.9
20260505191330 55 250 1.0 3.0 0.07 0.07 0.07 89 1006.9
20260505190813 55 251 0.0 3.0 0.05 0.05 0.05 89 1006.9
20260505190316 55 251 1.0 3.0 0.04 0.04 0.04 88 1006.9
20260505185820 55 281 1.0 3.0 0.03 0.03 0.03 88 1006.9
20260505185323 55 282 1.0 3.0 0.02 0.02 0.02 87 1006.9
20260505184832 55 281 1.0 3.0 0.01 0.01 0.01 86 1007.0
20260505184346 56 282 2.0 3.0 0.00 0.00 0.00 86 1007.0
20260505183835 56 290 1.0 7.0 0.00 0.00 0.00 85 1007.0
20260505183337 57 291 2.0 7.0 0.00 0.00 0.00 84 1007.0
20260505182824 57 294 1.0 7.0 0.00 0.00 0.00 83 1006.9
20260505182327 57 292 1.0 6.0 0.00 0.00 0.00 82 1007.0
20260505181830 58 275 3.0 8.0 0.00 0.00 0.00 81 1006.9
20260505181337 59 280 2.0 8.0 0.00 0.00 0.00 80 1006.9
20260505180819 60 289 3.0 10.0 0.00 0.00 0.00 79 1006.9
20260505180349 60 223 4.0 11.0 0.00 0.00 0.00 78 1006.9
20260505175830 60 248 5.0 12.0 0.00 0.00 0.00 77 1006.8
20260505175334 61 248 6.0 9.0 0.00 0.00 0.00 76 1006.7
20260505174822 61 274 4.0 8.0 0.00 0.00 0.00 76 1006.6
20260505174325 61 249 4.0 8.0 0.00 0.00 0.00 76 1006.6
20260505173828 61 267 3.0 10.0 0.00 0.00 0.00 75 1006.5
20260505173337 61 242 5.0 12.0 0.00 0.00 0.00 75 1006.5
20260505172819 61 272 4.0 8.0 0.00 0.00 0.00 76 1006.5
20260505172342 61 243 3.0 9.0 0.00 0.00 0.00 76 1006.5
20260505171829 61 224 5.0 9.0 0.00 0.00 0.00 76 1006.4
20260505171332 61 220 5.0 9.0 0.00 0.00 0.00 77 1006.3
20260505170842 61 254 5.0 12.0 0.00 0.00 0.00 77 1006.4
20260505170323 60 229 5.0 12.0 0.00 0.00 0.00 78 1006.4
20260505165823 60 225 4.0 9.0 0.00 0.00 0.00 79 1006.5
20260505165332 60 263 5.0 9.0 0.00 0.00 0.00 79 1006.5
20260505164814 60 271 4.0 8.0 0.00 0.00 0.00 80 1006.4
20260505164317 60 269 4.0 8.0 0.00 0.00 0.00 80 1006.4
20260505163820 59 253 3.0 9.0 0.00 0.00 0.00 80 1006.4
20260505163350 59 258 5.0 9.0 0.00 0.00 0.00 81 1006.4
20260505162831 59 213 3.0 9.0 0.00 0.00 0.00 81 1006.4
20260505162321 59 252 2.0 8.0 0.00 0.00 0.00 81 1006.3
20260505161845 59 261 4.0 8.0 0.00 0.00 0.00 81 1006.3
20260505161332 59 223 2.0 5.0 0.00 0.00 0.00 81 1006.3
20260505160815 59 264 3.0 8.0 0.00 0.00 0.00 80 1006.3
20260505160317 59 259 2.0 8.0 0.00 0.00 0.00 79 1006.3
20260505153324 63 248 4.0 8.0 0.00 0.00 0.00 72 1005.8
20260505152826 63 235 3.0 9.0 0.00 0.00 0.00 72 1005.6
20260505152329 63 311 3.0 9.0 0.00 0.00 0.00 70 1005.6
20260505151838 64 303 3.0 8.0 0.00 0.00 0.00 69 1005.3
20260505151321 64 255 4.0 9.0 0.00 0.00 0.00 67 1005.1
20260505150824 64 259 5.0 9.0 0.00 0.00 0.00 67 1004.8
20260505150333 64 242 4.0 8.0 0.00 0.00 0.00 67 1004.7
20260505140328 64 228 6.0 12.0 0.00 0.00 0.00 66 1004.8